SCP
0 0 0 0 0 0 0 0 0 0 0 0 0 0 0 0 0 0 0 0 0 0 0 0 0 0 0 0 0 0 0 0 0 0 0 0 0 0 0 0 0 0 0 0
0 0 0 0 0 0 0 0 0 0 0 0 0 0 0 0 0 0 0 0 0 0 0 0 0 0 0 0 0 0 0 0 0 0 0 0 0 0 0 0 0 0 0 0
0 0 0 0 0 0 0 0 0 0 0 0 0 0 0 0 0 0 0 0 0 0 0 0 0 0 0 0 0 0 0 0 0 0 0 0 0 0 -0 -0 0 0 0 0
0 0 0 0 0 0 0 0 0 0 0 0 0 0 0 0 0 0 0 0 0 0 0 0 0 0 0 -0 -0 -0 0 0 0 0 0 0 -0 0 0 0 -0 -0 0 0
0 0 0 0 0 0 0 0 0 0 0 0 0 0 0 0 0 0 0 0 0 0 0 0 0 0 0 -0 -0 -0 -0 -0 0 0 0 0 0 -0 -0 0 -0 -0 -0 0
0 0 0 0 0 0 0 0 0 0 0 0 0 0 0 0 0 0 0 0 0 0 0 0 0 0 0 0 0 0 0 0 0 0 0 0 0 0 0 0 0 -0 -0 -0
0 0 0 0 0 0 0 0 0 0 0 0 0 0 0 0 0 0 0 0 0 0 -0 -0 0 0 0 0 0 0 0 -0 0 0 0 0 0 0 0 0 -0 0 -0 0
0 0 0 0 0 0 0 0 0 0 0 0 0 0 0 0 0 0 0 0 0 0 0 0 0 0 0 0 0 0 0 0 0 0 0 0 -0 0 0 0 -0 0 -0 0
0 0 0 0 0 0 0 0 0 0 0 0 0 0 0 0 0 0 0 0 0 -0 0 0 0 0 0 0 0 0 0 -0 0 -0 -0 -0 -0 -0 0 0 0 -0 -0 -0
0 0 0 0 0 0 0 0 0 0 0 0 0 0 0 0 0 0 0 0 0 0 0 0 0 0 0 0 0 0 0 -0 -0 -0 -0 -0 -0 -0 0 -0 0 0 0 0
0 0 0 0 0 0 0 0 0 0 0 0 0 0 0 0 0 0 0 0 0 0 0 0 0 0 0 0 0 0 0 0 -0 -0 -0 -0 -0 -0 0 -0 0 0 0 0
0 0 0 0 0 0 0 0 0 0 0 0 0 0 0 0 0 0 0 0 0 0 0 0 0 0 0 0 0 0 0 -0 -0 -0 -0 -0 -0 -0 0 0 0 0 0 0
0 0 0 0 0 0 0 0 0 0 0 0 0 0 0 0 0 0 0 0 0 0 0 0 0 0 0 0 0 0 0 -0 -0 -0 -0 -0 -0 0 -0 0 0 0 0 0
0 0 0 0 0 0 0 0 0 0 0 0 0 0 0 0 0 0 0 0 0 0 0 0 0 0 0 0 -0 -0 -0 -0 -0 -0 -0 -0 -0 0 -0 0 0 0 0 0
0 0 0 0 0 0 0 0 0 0 0 0 0 0 0 0 0 0 0 0 0 0 0 0 -0 -0 -0 0 -0 -0 -0 -0 -0 -0 -0 -0 -0 -0 -0 0 0 0 0 0
0 0 0 0 0 0 0 0 0 0 0 0 0 0 0 0 0 0 0 0 0 0 0 0 -0 -0 0 -0 0 -0 0 -0 -0 -0 -0 -0 -0 -0 -0 0 0 0 0 0
0 0 0 0 0 0 0 0 0 0 0 0 0 0 0 0 0 0 0 0 0 0 0 0 0 0 0 0 0 -0 -0 -0 -0 -0 -0 -0 0 0 0 0 0 0 0 0
0 0 0 0 0 0 0 0 0 0 0 0 0 0 0 0 0 0 0 0 0 0 0 0 0 0 0 0 -0 -0 -0 -0 -0 -0 -0 -0 0 0 0 0 0 0 0 0
0 0 0 0 0 0 0 0 0 0 0 0 0 0 0 0 -0 0 0 0 0 0 0 0 0 0 0 -0 -0 -0 -0 -0 -0 -0 -0 -0 -0 0 0 0 0 0 0 0
0 0 0 0 0 0 0 0 0 0 0 0 0 0 0 0 0 0 0 0 0 0 0 0 0 0 0 -0 -0 -0 -0 -0 -0 -0 -0 -0 0 0 0 0 0 0 0 0
0 0 0 0 0 0 0 0 0 0 0 0 -0 -0 -0 0 0 -0 0 0 0 0 0 0 0 0 0 -0 -0 -0 -0 -0 -0 -0 -0 -0 0 0 0 0 0 0 0 0
0 0 0 0 0 0 0 -0 -0 -0 -0 0 -0 0 0 -0 -0 0 0 0 0 0 0 0 0 0 0 -0 -0 0 -0 -0 -0 -0 0 0 0 0 0 0 0 0 0 0
0 0 0 0 0 0 0 0 0 0 -0 0 -0 0 0 -0 -0 0 0 0 0 0 0 0 0 -0 0 -0 -0 -0 0 0 0 -0 0 0 0 0 0 0 0 0 0 0
0 0 0 0 0 0 0 0 0 0 -0 0 0 -0 -0 -0 0 0 0 0 0 0 0 0 -0 -0 -0 -0 -0 -0 0 0 0 0 0 0 0 0 0 0 0 0 0 0
0 0 0 0 0 0 0 0 0 -0 -0 -0 -0 -0 -0 -0 0 0 0 0 0 0 0 -0 -0 -0 0 -0 -0 -0 0 0 0 0 0 0 0 0 0 0 0 0 0 0
0 0 0 0 0 0 -0 -0 -0 -0 -0 -0 -0 -0 -0 -0 0 0 0 0 0 0 -0 -0 0 0 0 -0 -0 -0 0 0 0 0 0 0 0 0 0 0 0 0 0 0
Wind_Speed_500mb
13 17 10 7 2 4 6 6 12 9 8 24 10 30 17 13 23 22 21 22 24 24 22 23 26 29 31 34 38 41 43 40 39 38 41 43 47 44 35 33 32 36 41 50
12 8 7 4 9 7 6 8 10 20 11 19 24 34 8 17 10 13 16 18 20 20 22 25 27 29 33 38 43 47 51 53 51 48 42 43 45 50 51 44 37 38 43 38
6 1 8 4 5 8 4 4 8 14 12 14 17 11 6 8 9 10 18 14 17 23 25 26 30 34 37 41 47 54 56 56 56 53 55 55 51 52 54 54 50 43 41 44
7 9 6 8 6 1 3 5 10 19 24 17 14 15 8 3 3 6 11 14 17 18 23 29 35 40 44 49 51 50 48 47 49 48 48 50 54 54 54 59 57 57 45 46
3 10 10 9 1 6 7 15 13 31 25 8 9 6 5 4 3 6 8 11 13 17 26 32 33 38 46 53 53 51 47 43 42 43 44 46 47 48 53 57 60 57 44 45
3 5 7 7 6 6 14 11 15 6 2 4 11 7 7 4 4 11 9 15 22 27 29 29 30 37 44 49 50 48 46 45 46 47 45 45 45 47 54 51 60 61 50 47
13 5 7 12 10 9 18 14 11 8 4 6 7 12 17 7 6 8 15 26 34 32 38 35 33 36 41 45 49 48 47 44 47 49 51 53 55 53 55 55 58 59 56 50
10 8 10 16 5 7 5 3 1 12 12 22 24 15 3 4 11 17 26 36 45 57 49 37 40 38 39 39 44 43 39 39 51 56 60 64 63 52 54 57 60 59 56 58
13 8 8 7 6 3 3 1 3 11 12 9 8 12 8 2 11 27 42 40 58 66 54 36 43 42 40 42 44 43 41 44 51 58 62 69 70 62 55 54 53 52 51 52
6 14 5 10 4 5 6 1 6 0 8 11 5 20 21 20 26 38 39 52 64 69 59 50 59 52 41 43 46 45 44 46 51 56 63 70 77 68 62 54 52 49 49 49
3 6 7 6 4 15 11 4 4 3 3 6 12 18 7 32 34 26 52 62 60 63 56 57 58 45 40 42 48 49 49 51 52 57 64 72 80 74 72 51 46 45 46 42
5 1 8 14 12 6 2 2 7 5 10 9 11 32 25 20 28 51 62 56 61 48 48 49 35 28 33 42 50 54 50 53 56 59 65 73 81 78 82 54 45 44 42 36
6 2 12 12 4 3 9 1 1 3 4 32 21 23 17 56 64 59 48 55 50 43 36 33 35 37 41 49 55 56 54 56 60 61 66 74 83 84 84 61 47 43 41 35
13 5 12 14 19 9 25 21 16 14 14 27 31 48 50 39 37 52 55 54 40 33 34 37 41 47 53 58 63 64 60 56 58 56 63 73 82 84 83 62 49 39 40 33
5 8 8 12 25 25 34 42 42 22 36 18 41 38 42 37 35 52 46 40 34 36 41 47 53 60 61 59 62 62 61 54 49 53 65 72 76 83 81 61 48 37 42 32
6 8 18 30 22 29 34 40 33 34 34 31 39 41 37 42 36 36 43 35 36 42 45 52 60 59 54 59 66 67 63 57 54 61 69 69 83 88 81 62 47 36 41 34
4 4 1 10 10 21 14 11 13 11 12 16 13 22 27 25 40 43 45 45 46 45 49 55 55 59 61 62 65 66 63 61 64 63 63 78 92 90 77 63 45 34 41 31
4 3 5 9 9 6 5 12 11 25 9 18 22 28 33 35 49 63 52 43 42 46 50 53 56 63 66 65 64 64 63 64 62 65 71 85 88 86 69 57 40 34 33 29
13 1 6 8 13 23 12 14 26 17 11 21 37 41 54 56 53 47 36 29 43 48 49 54 58 66 68 68 65 64 63 62 67 82 84 88 86 76 60 50 39 36 32 23
10 7 4 6 5 12 6 26 73 14 13 47 54 50 54 61 23 26 46 61 52 49 51 59 68 70 68 67 58 55 87 92 87 86 86 82 76 59 54 49 33 38 30 9
7 7 5 8 8 17 3 42 46 13 16 62 65 61 61 32 42 68 63 52 48 51 60 67 72 73 71 63 59 73 94 81 80 71 64 61 56 53 47 36 35 29 10 38
3 1 5 1 4 12 8 46 15 32 60 53 66 60 61 73 73 55 48 51 53 60 70 75 75 77 74 69 85 94 84 78 64 61 60 57 52 43 34 27 22 15 64 73
4 12 6 14 12 44 68 61 62 54 65 59 53 70 71 74 63 54 55 56 62 67 77 78 77 82 76 91 78 80 78 67 61 52 52 51 43 26 16 18 2 36 68 79
6 18 9 12 24 42 62 76 63 53 54 67 71 64 67 64 58 57 59 63 65 73 79 80 83 76 87 89 87 72 62 51 48 47 46 42 25 10 10 12 23 50 67 97
21 6 10 17 44 42 52 43 57 66 69 69 60 60 60 54 56 56 62 58 67 74 79 80 76 81 96 93 75 52 42 38 36 33 29 19 2 6 14 19 43 58 68 94
9 10 9 16 51 48 68 77 77 65 68 57 57 60 49 50 53 56 54 61 69 75 78 84 77 98 96 87 68 44 36 26 26 21 15 12 14 28 29 30 46 45 66 89
Wind_Direction_500mb
25 59 48 343 3 235 249 253 277 282 319 344 289 295 316 49 71 75 70 66 61 52 40 25 13 4 356 349 345 342 338 336 333 329 325 315 313 309 297 287 297 290 274 267
27 86 342 329 35 4 327 323 333 288 302 326 294 299 108 60 72 92 82 52 45 35 23 19 12 3 354 348 346 343 340 334 327 320 323 324 319 316 313 303 298 300 301 286
92 64 352 59 68 16 105 92 275 266 308 263 304 273 163 88 99 79 61 60 28 16 12 11 7 359 350 344 338 329 322 321 319 319 310 304 305 307 308 309 302 303 298 299
82 358 28 40 84 343 288 346 288 302 330 309 19 292 131 37 16 26 22 15 8 11 10 1 352 349 351 347 345 341 340 339 331 326 324 317 307 309 310 309 308 308 307 296
333 12 36 53 209 344 287 335 284 290 280 309 13 252 297 286 227 291 331 348 6 355 340 338 342 343 345 345 344 344 343 345 341 339 337 330 322 312 306 305 305 311 302 301
54 1 42 340 328 9 307 329 310 52 94 256 114 1 272 262 314 309 309 313 325 332 332 322 324 330 337 342 344 344 343 345 340 335 330 328 326 320 315 311 305 313 311 300
343 11 4 17 358 6 23 10 336 322 338 317 182 330 264 319 323 308 325 316 319 317 319 311 314 321 332 340 342 341 341 348 354 350 341 331 319 312 312 314 313 317 319 306
0 347 18 338 34 317 5 60 261 292 308 300 309 251 239 290 312 318 309 306 310 315 317 315 314 312 320 333 340 338 337 339 346 349 350 347 342 326 317 313 311 314 313 309
350 260 325 42 330 26 354 55 161 273 273 261 254 304 248 339 338 335 334 331 325 318 318 305 328 310 310 325 337 336 330 327 333 339 346 347 347 339 329 316 317 310 306 303
4 293 327 298 344 54 108 261 294 153 289 280 281 295 291 319 320 327 325 323 320 321 320 298 324 320 303 315 325 329 327 324 330 335 342 343 346 345 337 323 320 309 310 303
85 172 269 345 292 306 338 319 51 302 231 279 304 277 324 304 305 318 315 317 316 317 320 319 316 310 301 303 313 319 322 322 323 328 337 339 343 344 346 328 321 316 316 309
314 300 288 254 295 279 212 136 101 174 271 241 276 282 285 290 311 312 308 314 321 326 327 325 325 325 317 313 310 310 312 317 320 323 329 335 338 340 345 337 327 327 325 317
5 298 308 317 13 58 83 334 216 163 196 282 285 280 284 308 307 310 314 319 332 341 349 349 342 338 328 322 319 317 309 312 316 317 325 331 335 339 342 340 330 337 329 325
288 216 204 256 286 300 298 284 253 261 274 282 268 278 291 301 302 310 313 320 331 346 342 338 337 335 330 324 320 317 314 316 315 316 323 330 335 338 337 337 332 336 331 333
83 255 272 282 284 285 278 279 283 254 255 255 275 289 285 291 301 305 303 312 326 331 331 333 333 331 328 325 327 331 333 322 318 321 323 328 333 336 338 336 333 340 336 328
8 284 319 299 271 263 269 275 276 276 270 255 260 275 285 287 299 313 324 316 316 320 326 331 331 331 329 325 323 324 328 326 324 322 321 326 332 334 338 337 335 333 337 320
251 279 348 279 288 313 283 316 290 282 269 284 292 321 325 323 327 320 318 311 307 314 326 328 326 325 323 322 322 322 321 320 318 319 319 325 329 331 336 334 334 338 333 320
210 161 235 272 320 258 188 29 354 336 318 32 354 340 327 319 324 319 316 313 316 315 320 322 324 324 323 322 322 320 320 319 317 317 317 323 325 327 331 328 331 333 331 325
192 229 314 315 317 289 317 15 340 337 301 12 356 334 332 333 326 311 326 318 319 321 321 321 321 322 320 320 321 318 322 323 318 315 316 320 322 323 324 325 325 334 331 314
68 59 125 328 241 275 76 348 344 309 239 358 345 329 326 332 323 303 322 319 324 325 324 323 324 321 319 321 321 320 323 320 311 309 311 315 315 322 322 324 322 334 322 266
340 324 239 266 257 279 207 356 348 341 336 327 327 317 316 316 298 291 315 318 324 324 325 326 325 322 321 321 314 310 319 315 315 312 310 312 317 323 322 322 327 323 280 163
253 216 264 216 268 279 257 328 350 293 304 304 305 309 313 315 324 322 321 322 324 324 326 328 328 326 325 323 323 316 312 313 307 306 303 304 309 317 320 323 333 308 161 167
278 195 229 193 248 275 293 296 300 296 299 307 309 311 318 319 322 320 322 323 325 325 328 331 331 328 328 328 315 307 305 301 298 299 295 302 310 313 325 339 208 164 152 160
276 241 237 299 271 282 292 298 301 305 303 305 310 315 322 321 318 317 322 322 325 328 330 333 333 331 326 320 325 318 312 301 292 289 292 299 303 315 318 118 198 161 147 147
283 229 241 254 282 298 296 298 298 305 304 306 313 318 325 325 318 320 324 328 329 330 334 333 335 333 325 332 332 326 319 307 290 284 286 285 234 12 108 163 169 159 150 157
201 235 288 286 298 294 289 301 306 300 302 306 314 316 325 323 321 324 328 332 334 336 335 339 338 334 335 339 342 325 306 307 282 273 260 170 120 110 141 152 147 153 153 150
Wind_Speed_850mb
13 17 10 7 2 4 6 6 12 9 8 24 10 30 17 13 23 22 21 22 24 24 22 23 26 29 31 34 38 41 43 40 39 38 41 43 47 44 35 33 32 36 41 50
12 8 7 4 9 7 6 8 10 20 11 19 24 34 8 17 10 13 16 18 20 20 22 25 27 29 33 38 43 47 51 53 51 48 42 43 45 50 51 44 37 38 43 38
6 1 8 4 5 8 4 4 8 14 12 14 17 11 6 8 9 10 18 14 17 23 25 26 30 34 37 41 47 54 56 56 56 53 55 55 51 52 54 54 50 43 41 44
7 9 6 8 6 1 3 5 10 19 24 17 14 15 8 3 3 6 11 14 17 18 23 29 35 40 44 49 51 50 48 47 49 48 48 50 54 54 54 59 57 57 45 46
3 10 10 9 1 6 7 15 13 31 25 8 9 6 5 4 3 6 8 11 13 17 26 32 33 38 46 53 53 51 47 43 42 43 44 46 47 48 53 57 60 57 44 45
3 5 7 7 6 6 14 11 15 6 2 4 11 7 7 4 4 11 9 15 22 27 29 29 30 37 44 49 50 48 46 45 46 47 45 45 45 47 54 51 60 61 50 47
13 5 7 12 10 9 18 14 11 8 4 6 7 12 17 7 6 8 15 26 34 32 38 35 33 36 41 45 49 48 47 44 47 49 51 53 55 53 55 55 58 59 56 50
10 8 10 16 5 7 5 3 1 12 12 22 24 15 3 4 11 17 26 36 45 57 49 37 40 38 39 39 44 43 39 39 51 56 60 64 63 52 54 57 60 59 56 58
13 8 8 7 6 3 3 1 3 11 12 9 8 12 8 2 11 27 42 40 58 66 54 36 43 42 40 42 44 43 41 44 51 58 62 69 70 62 55 54 53 52 51 52
6 14 5 10 4 5 6 1 6 0 8 11 5 20 21 20 26 38 39 52 64 69 59 50 59 52 41 43 46 45 44 46 51 56 63 70 77 68 62 54 52 49 49 49
3 6 7 6 4 15 11 4 4 3 3 6 12 18 7 32 34 26 52 62 60 63 56 57 58 45 40 42 48 49 49 51 52 57 64 72 80 74 72 51 46 45 46 42
5 1 8 14 12 6 2 2 7 5 10 9 11 32 25 20 28 51 62 56 61 48 48 49 35 28 33 42 50 54 50 53 56 59 65 73 81 78 82 54 45 44 42 36
6 2 12 12 4 3 9 1 1 3 4 32 21 23 17 56 64 59 48 55 50 43 36 33 35 37 41 49 55 56 54 56 60 61 66 74 83 84 84 61 47 43 41 35
13 5 12 14 19 9 25 21 16 14 14 27 31 48 50 39 37 52 55 54 40 33 34 37 41 47 53 58 63 64 60 56 58 56 63 73 82 84 83 62 49 39 40 33
5 8 8 12 25 25 34 42 42 22 36 18 41 38 42 37 35 52 46 40 34 36 41 47 53 60 61 59 62 62 61 54 49 53 65 72 76 83 81 61 48 37 42 32
6 8 18 30 22 29 34 40 33 34 34 31 39 41 37 42 36 36 43 35 36 42 45 52 60 59 54 59 66 67 63 57 54 61 69 69 83 88 81 62 47 36 41 34
4 4 1 10 10 21 14 11 13 11 12 16 13 22 27 25 40 43 45 45 46 45 49 55 55 59 61 62 65 66 63 61 64 63 63 78 92 90 77 63 45 34 41 31
4 3 5 9 9 6 5 12 11 25 9 18 22 28 33 35 49 63 52 43 42 46 50 53 56 63 66 65 64 64 63 64 62 65 71 85 88 86 69 57 40 34 33 29
13 1 6 8 13 23 12 14 26 17 11 21 37 41 54 56 53 47 36 29 43 48 49 54 58 66 68 68 65 64 63 62 67 82 84 88 86 76 60 50 39 36 32 23
10 7 4 6 5 12 6 26 73 14 13 47 54 50 54 61 23 26 46 61 52 49 51 59 68 70 68 67 58 55 87 92 87 86 86 82 76 59 54 49 33 38 30 9
7 7 5 8 8 17 3 42 46 13 16 62 65 61 61 32 42 68 63 52 48 51 60 67 72 73 71 63 59 73 94 81 80 71 64 61 56 53 47 36 35 29 10 38
3 1 5 1 4 12 8 46 15 32 60 53 66 60 61 73 73 55 48 51 53 60 70 75 75 77 74 69 85 94 84 78 64 61 60 57 52 43 34 27 22 15 64 73
4 12 6 14 12 44 68 61 62 54 65 59 53 70 71 74 63 54 55 56 62 67 77 78 77 82 76 91 78 80 78 67 61 52 52 51 43 26 16 18 2 36 68 79
6 18 9 12 24 42 62 76 63 53 54 67 71 64 67 64 58 57 59 63 65 73 79 80 83 76 87 89 87 72 62 51 48 47 46 42 25 10 10 12 23 50 67 97
21 6 10 17 44 42 52 43 57 66 69 69 60 60 60 54 56 56 62 58 67 74 79 80 76 81 96 93 75 52 42 38 36 33 29 19 2 6 14 19 43 58 68 94
9 10 9 16 51 48 68 77 77 65 68 57 57 60 49 50 53 56 54 61 69 75 78 84 77 98 96 87 68 44 36 26 26 21 15 12 14 28 29 30 46 45 66 89
Wind_Direction_850mb
25 59 48 343 3 235 249 253 277 282 319 344 289 295 316 49 71 75 70 66 61 52 40 25 13 4 356 349 345 342 338 336 333 329 325 315 313 309 297 287 297 290 274 267
27 86 342 329 35 4 327 323 333 288 302 326 294 299 108 60 72 92 82 52 45 35 23 19 12 3 354 348 346 343 340 334 327 320 323 324 319 316 313 303 298 300 301 286
92 64 352 59 68 16 105 92 275 266 308 263 304 273 163 88 99 79 61 60 28 16 12 11 7 359 350 344 338 329 322 321 319 319 310 304 305 307 308 309 302 303 298 299
82 358 28 40 84 343 288 346 288 302 330 309 19 292 131 37 16 26 22 15 8 11 10 1 352 349 351 347 345 341 340 339 331 326 324 317 307 309 310 309 308 308 307 296
333 12 36 53 209 344 287 335 284 290 280 309 13 252 297 286 227 291 331 348 6 355 340 338 342 343 345 345 344 344 343 345 341 339 337 330 322 312 306 305 305 311 302 301
54 1 42 340 328 9 307 329 310 52 94 256 114 1 272 262 314 309 309 313 325 332 332 322 324 330 337 342 344 344 343 345 340 335 330 328 326 320 315 311 305 313 311 300
343 11 4 17 358 6 23 10 336 322 338 317 182 330 264 319 323 308 325 316 319 317 319 311 314 321 332 340 342 341 341 348 354 350 341 331 319 312 312 314 313 317 319 306
0 347 18 338 34 317 5 60 261 292 308 300 309 251 239 290 312 318 309 306 310 315 317 315 314 312 320 333 340 338 337 339 346 349 350 347 342 326 317 313 311 314 313 309
350 260 325 42 330 26 354 55 161 273 273 261 254 304 248 339 338 335 334 331 325 318 318 305 328 310 310 325 337 336 330 327 333 339 346 347 347 339 329 316 317 310 306 303
4 293 327 298 344 54 108 261 294 153 289 280 281 295 291 319 320 327 325 323 320 321 320 298 324 320 303 315 325 329 327 324 330 335 342 343 346 345 337 323 320 309 310 303
85 172 269 345 292 306 338 319 51 302 231 279 304 277 324 304 305 318 315 317 316 317 320 319 316 310 301 303 313 319 322 322 323 328 337 339 343 344 346 328 321 316 316 309
314 300 288 254 295 279 212 136 101 174 271 241 276 282 285 290 311 312 308 314 321 326 327 325 325 325 317 313 310 310 312 317 320 323 329 335 338 340 345 337 327 327 325 317
5 298 308 317 13 58 83 334 216 163 196 282 285 280 284 308 307 310 314 319 332 341 349 349 342 338 328 322 319 317 309 312 316 317 325 331 335 339 342 340 330 337 329 325
288 216 204 256 286 300 298 284 253 261 274 282 268 278 291 301 302 310 313 320 331 346 342 338 337 335 330 324 320 317 314 316 315 316 323 330 335 338 337 337 332 336 331 333
83 255 272 282 284 285 278 279 283 254 255 255 275 289 285 291 301 305 303 312 326 331 331 333 333 331 328 325 327 331 333 322 318 321 323 328 333 336 338 336 333 340 336 328
8 284 319 299 271 263 269 275 276 276 270 255 260 275 285 287 299 313 324 316 316 320 326 331 331 331 329 325 323 324 328 326 324 322 321 326 332 334 338 337 335 333 337 320
251 279 348 279 288 313 283 316 290 282 269 284 292 321 325 323 327 320 318 311 307 314 326 328 326 325 323 322 322 322 321 320 318 319 319 325 329 331 336 334 334 338 333 320
210 161 235 272 320 258 188 29 354 336 318 32 354 340 327 319 324 319 316 313 316 315 320 322 324 324 323 322 322 320 320 319 317 317 317 323 325 327 331 328 331 333 331 325
192 229 314 315 317 289 317 15 340 337 301 12 356 334 332 333 326 311 326 318 319 321 321 321 321 322 320 320 321 318 322 323 318 315 316 320 322 323 324 325 325 334 331 314
68 59 125 328 241 275 76 348 344 309 239 358 345 329 326 332 323 303 322 319 324 325 324 323 324 321 319 321 321 320 323 320 311 309 311 315 315 322 322 324 322 334 322 266
340 324 239 266 257 279 207 356 348 341 336 327 327 317 316 316 298 291 315 318 324 324 325 326 325 322 321 321 314 310 319 315 315 312 310 312 317 323 322 322 327 323 280 163
253 216 264 216 268 279 257 328 350 293 304 304 305 309 313 315 324 322 321 322 324 324 326 328 328 326 325 323 323 316 312 313 307 306 303 304 309 317 320 323 333 308 161 167
278 195 229 193 248 275 293 296 300 296 299 307 309 311 318 319 322 320 322 323 325 325 328 331 331 328 328 328 315 307 305 301 298 299 295 302 310 313 325 339 208 164 152 160
276 241 237 299 271 282 292 298 301 305 303 305 310 315 322 321 318 317 322 322 325 328 330 333 333 331 326 320 325 318 312 301 292 289 292 299 303 315 318 118 198 161 147 147
283 229 241 254 282 298 296 298 298 305 304 306 313 318 325 325 318 320 324 328 329 330 334 333 335 333 325 332 332 326 319 307 290 284 286 285 234 12 108 163 169 159 150 157
201 235 288 286 298 294 289 301 306 300 302 306 314 316 325 323 321 324 328 332 334 336 335 339 338 334 335 339 342 325 306 307 282 273 260 170 120 110 141 152 147 153 153 150